SWR96B LSZH-LSGG

Flight info

Callsign SWR96B
Flight time 0h 25m
Altitude 18000
Route VEBIT T50 ROTOS Z669 ULMES
Aircraft A320/M-SDE3FGHIRWY/LB1

Departure

Time 2026-05-03 21:10
Airport Zürich Airport (LSZH)

Arrival

Time 2026-05-03 21:36
Airport Geneva International Airport (LSGG)
Time Latitude Longitude Altitude Speed Heading
2026-05-03 20:36 47.45403 8.56111 1383 ft 0 kts 186°
2026-05-03 20:52 47.45403 8.56112 1383 ft 0 kts 186°
2026-05-03 20:54 47.45409 8.56113 1383 ft 2 kts 185°
2026-05-03 20:54 47.45439 8.56117 1383 ft 2 kts 185°
2026-05-03 20:54 47.45450 8.56118 1383 ft 0 kts 185°
2026-05-03 20:55 47.45464 8.56118 1383 ft 2 kts 160°
2026-05-03 20:55 47.45477 8.56106 1383 ft 2 kts 134°
2026-05-03 20:55 47.45484 8.56087 1383 ft 2 kts 106°
2026-05-03 20:55 47.45486 8.56077 1383 ft 1 kts 92°
2026-05-03 20:56 47.45486 8.56072 1383 ft 0 kts 96°
2026-05-03 20:58 47.45486 8.56074 1383 ft 0 kts 96°
2026-05-03 20:58 47.45486 8.56075 1383 ft 0 kts 96°
2026-05-03 21:00 47.45486 8.56076 1383 ft 0 kts 96°
2026-05-03 21:01 47.45480 8.56154 1383 ft 17 kts 96°
2026-05-03 21:01 47.45552 8.56253 1383 ft 16 kts
2026-05-03 21:01 47.45619 8.56265 1383 ft 0 kts
2026-05-03 21:01 47.45620 8.56265 1383 ft 0 kts
2026-05-03 21:03 47.45641 8.56268 1383 ft 18 kts
2026-05-03 21:03 47.45821 8.56296 1383 ft 25 kts
2026-05-03 21:04 47.45990 8.56321 1383 ft 21 kts
2026-05-03 21:04 47.46019 8.56326 1385 ft 0 kts
2026-05-03 21:08 47.46018 8.56326 1385 ft 0 kts
2026-05-03 21:08 47.46034 8.56329 1386 ft 10 kts
2026-05-03 21:08 47.46111 8.56399 1394 ft 12 kts 45°
2026-05-03 21:09 47.46148 8.56419 1399 ft 0 kts 323°
2026-05-03 21:09 47.46149 8.56418 1399 ft 4 kts 323°
2026-05-03 21:09 47.46375 8.56108 1395 ft 84 kts 317°
2026-05-03 21:09 47.46983 8.55274 1385 ft 150 kts 317°
2026-05-03 21:10 47.47818 8.54168 1807 ft 166 kts 320°
2026-05-03 21:10 47.48706 8.53125 2542 ft 168 kts 326°
2026-05-03 21:10 47.49707 8.52128 3091 ft 182 kts 326°
2026-05-03 21:10 47.50786 8.51016 3556 ft 198 kts 325°
2026-05-03 21:11 47.51962 8.49736 3951 ft 220 kts 316°
2026-05-03 21:11 47.52835 8.47873 4657 ft 227 kts 292°
2026-05-03 21:11 47.53360 8.45724 5526 ft 226 kts 283°
2026-05-03 21:11 47.53389 8.43429 6324 ft 227 kts 253°
2026-05-03 21:12 47.52797 8.41302 7151 ft 229 kts 243°
2026-05-03 21:12 47.51888 8.39343 7800 ft 239 kts 221°
2026-05-03 21:12 47.50365 8.38211 8240 ft 259 kts 194°
2026-05-03 21:12 47.48544 8.37664 8799 ft 274 kts 192°
2026-05-03 21:13 47.46677 8.37114 9589 ft 278 kts 193°
2026-05-03 21:13 47.44779 8.36528 10491 ft 279 kts 193°
2026-05-03 21:13 47.42862 8.35918 11089 ft 290 kts 193°
2026-05-03 21:13 47.40857 8.35196 11524 ft 307 kts 200°
2026-05-03 21:14 47.38980 8.33563 11835 ft 328 kts 220°
2026-05-03 21:14 47.37498 8.30866 12158 ft 349 kts 235°
2026-05-03 21:14 47.36301 8.27671 12457 ft 367 kts 240°
2026-05-03 21:14 47.35141 8.24235 12730 ft 383 kts 241°
2026-05-03 21:15 47.33927 8.20645 13106 ft 394 kts 240°
2026-05-03 21:15 47.32686 8.17053 13735 ft 397 kts 240°
2026-05-03 21:15 47.31418 8.13434 14407 ft 399 kts 240°
2026-05-03 21:15 47.30140 8.09816 15028 ft 402 kts 240°
2026-05-03 21:16 47.28846 8.06175 15619 ft 405 kts 240°
2026-05-03 21:16 47.27556 8.02523 16214 ft 407 kts 242°
2026-05-03 21:16 47.26351 7.98737 16788 ft 411 kts 245°
2026-05-03 21:16 47.25253 7.94867 17385 ft 412 kts 246°
2026-05-03 21:17 47.24144 7.90908 17865 ft 415 kts 246°
2026-05-03 21:17 47.23423 7.88335 18020 ft 415 kts 246°
2026-05-03 21:17 47.21952 7.83085 18057 ft 414 kts 246°
2026-05-03 21:17 47.20849 7.79157 18062 ft 415 kts 246°
2026-05-03 21:18 47.19664 7.75340 18065 ft 414 kts 242°
2026-05-03 21:18 47.18246 7.71660 18066 ft 414 kts 237°
2026-05-03 21:18 47.16610 7.68178 18067 ft 413 kts 232°
2026-05-03 21:18 47.14842 7.64840 18068 ft 413 kts 231°
2026-05-03 21:19 47.13067 7.61549 18068 ft 413 kts 231°
2026-05-03 21:19 47.11286 7.58261 18068 ft 413 kts 231°
2026-05-03 21:19 47.09498 7.54960 18068 ft 413 kts 231°
2026-05-03 21:19 47.07711 7.51660 18067 ft 414 kts 231°
2026-05-03 21:20 47.05908 7.48334 18067 ft 414 kts 231°
2026-05-03 21:20 47.04135 7.45067 18068 ft 414 kts 231°
2026-05-03 21:20 47.02332 7.41750 18068 ft 414 kts 231°
2026-05-03 21:20 47.00541 7.38470 18068 ft 414 kts 231°
2026-05-03 21:21 46.98735 7.35174 18068 ft 414 kts 231°
2026-05-03 21:21 46.96947 7.31908 18068 ft 414 kts 230°
2026-05-03 21:21 46.95146 7.28615 18070 ft 421 kts 230°
2026-05-03 21:21 46.93286 7.25217 18067 ft 425 kts 230°
2026-05-03 21:22 46.91444 7.21854 17902 ft 427 kts 230°
2026-05-03 21:22 46.89590 7.18476 17316 ft 422 kts 230°
2026-05-03 21:22 46.87771 7.15185 16778 ft 419 kts 230°
2026-05-03 21:22 46.85939 7.11876 16245 ft 416 kts 230°
2026-05-03 21:23 46.84146 7.08634 15729 ft 414 kts 230°
2026-05-03 21:23 46.82342 7.05368 15214 ft 411 kts 230°
2026-05-03 21:23 46.80561 7.02144 14705 ft 408 kts 230°
2026-05-03 21:23 46.78777 6.98920 14195 ft 406 kts 230°
2026-05-03 21:24 46.77015 6.95741 13701 ft 404 kts 230°
2026-05-03 21:24 46.75267 6.92585 13215 ft 401 kts 230°
2026-05-03 21:24 46.73526 6.89443 12725 ft 399 kts 230°
2026-05-03 21:24 46.71778 6.86292 12232 ft 397 kts 230°
2026-05-03 21:25 46.70040 6.83159 11737 ft 395 kts 230°
2026-05-03 21:25 46.68343 6.80109 11255 ft 393 kts 230°
2026-05-03 21:25 46.66629 6.77033 10766 ft 391 kts 230°
2026-05-03 21:25 46.64884 6.74022 10286 ft 385 kts 228°
2026-05-03 21:26 46.63126 6.71152 10030 ft 370 kts 227°
2026-05-03 21:26 46.61470 6.68472 9948 ft 352 kts 227°
2026-05-03 21:26 46.59869 6.65881 9530 ft 331 kts 227°
2026-05-03 21:26 46.58387 6.63477 9158 ft 306 kts 227°
2026-05-03 21:27 46.57024 6.61265 8811 ft 286 kts 227°
2026-05-03 21:27 46.55746 6.59192 8501 ft 272 kts 227°
2026-05-03 21:27 46.54477 6.57137 8189 ft 272 kts 227°
2026-05-03 21:27 46.53225 6.55110 7884 ft 269 kts 227°
2026-05-03 21:28 46.51976 6.53089 7576 ft 269 kts 227°
2026-05-03 21:28 46.50721 6.51061 7290 ft 267 kts 227°
2026-05-03 21:28 46.49491 6.49076 7270 ft 268 kts 227°
2026-05-03 21:28 46.48241 6.47056 7235 ft 268 kts 228°
2026-05-03 21:29 46.46996 6.45060 7171 ft 269 kts 226°
2026-05-03 21:29 46.45674 6.43139 7067 ft 265 kts 225°
2026-05-03 21:29 46.44436 6.41246 6769 ft 251 kts 227°
2026-05-03 21:29 46.43262 6.39440 6429 ft 241 kts 226°
2026-05-03 21:30 46.42146 6.37756 6102 ft 229 kts 226°
2026-05-03 21:30 46.41054 6.36137 5789 ft 218 kts 226°
2026-05-03 21:30 46.40011 6.34606 5494 ft 208 kts 225°
2026-05-03 21:30 46.39024 6.33155 5218 ft 199 kts 225°
2026-05-03 21:31 46.38071 6.31757 4957 ft 190 kts 225°
2026-05-03 21:31 46.37138 6.30394 4719 ft 188 kts 225°
2026-05-03 21:31 46.36252 6.29103 4571 ft 177 kts 225°
2026-05-03 21:31 46.35393 6.27851 4321 ft 176 kts 225°
2026-05-03 21:32 46.34517 6.26574 4067 ft 178 kts 225°
2026-05-03 21:32 46.33655 6.25319 3815 ft 177 kts 224°
2026-05-03 21:32 46.32781 6.24041 3562 ft 177 kts 224°
2026-05-03 21:32 46.31924 6.22788 3321 ft 177 kts 224°
2026-05-03 21:33 46.31063 6.21529 3084 ft 173 kts 224°
2026-05-03 21:33 46.30251 6.20341 2865 ft 160 kts 224°
2026-05-03 21:33 46.29497 6.19236 2644 ft 151 kts 224°
2026-05-03 21:33 46.28755 6.18150 2460 ft 151 kts 225°
2026-05-03 21:34 46.28022 6.17078 2271 ft 151 kts 225°
2026-05-03 21:34 46.27277 6.15986 2071 ft 151 kts 225°
2026-05-03 21:34 46.26540 6.14907 1867 ft 150 kts 226°
2026-05-03 21:34 46.25818 6.13849 1667 ft 149 kts 226°
2026-05-03 21:35 46.25092 6.12784 1471 ft 148 kts 226°
2026-05-03 21:35 46.24429 6.11809 1419 ft 104 kts 226°
2026-05-03 21:35 46.24021 6.11209 1419 ft 76 kts 225°
2026-05-03 21:35 46.23667 6.10765 1419 ft 50 kts 204°
2026-05-03 21:36 46.23474 6.10677 1419 ft 11 kts 196°
2026-05-03 21:36 46.23461 6.10672 1419 ft 0 kts 196°
2026-05-03 21:36 46.23452 6.10668 1419 ft 1 kts 196°
2026-05-03 21:36 46.23431 6.10657 1419 ft 4 kts 201°
2026-05-03 21:37 46.23403 6.10638 1419 ft 4 kts 209°
2026-05-03 21:37 46.23341 6.10553 1419 ft 17 kts 226°
2026-05-03 21:37 46.23255 6.10432 1419 ft 17 kts 226°
2026-05-03 21:37 46.23211 6.10366 1419 ft 0 kts 226°
2026-05-03 21:38 46.23209 6.10363 1419 ft 0 kts 226°
2026-05-03 21:38 46.23208 6.10361 1419 ft 0 kts 226°
2026-05-03 21:38 46.23161 6.10359 1419 ft 14 kts 145°
2026-05-03 21:38 46.23126 6.10476 1419 ft 13 kts 90°
2026-05-03 21:39 46.23126 6.10515 1419 ft 1 kts 90°
2026-05-03 21:39 46.23126 6.10518 1419 ft 0 kts 90°